FW6148 Weather Reports


Display with metric or nautical units.
time (UTC)temp
F
wind
direction
speed
MPH
gust
MPH
rain 1hr
in
rain 24hr
in
rain mn
in
humidity
%
barometer
mb
20260510233531 73 252 4.0 12.0 0.00 0.05 0.00 37 1016.3
20260510233039 73 254 6.0 12.0 0.00 0.05 0.00 36 1016.2
20260510232528 73 239 4.0 11.0 0.00 0.05 0.00 36 1016.3
20260510232028 73 234 3.0 8.0 0.00 0.05 0.00 37 1016.2
20260510231540 73 242 4.0 8.0 0.00 0.05 0.00 35 1016.3
20260510231027 72 243 3.0 12.0 0.00 0.05 0.00 36 1016.3
20260510230529 72 275 3.0 13.0 0.00 0.05 0.00 35 1016.4
20260510230043 72 223 7.0 13.0 0.00 0.05 0.00 37 1016.7
20260510225527 72 260 4.0 10.0 0.00 0.05 0.00 34 1016.5
20260510225029 72 256 3.0 11.0 0.00 0.05 0.00 35 1016.6
20260510224543 72 226 5.0 12.0 0.00 0.05 0.00 37 1016.6
20260510224027 72 263 6.0 12.0 0.00 0.05 0.00 36 1016.7
20260510223531 72 280 3.0 9.0 0.00 0.05 0.00 36 1016.7
20260510223038 72 284 4.0 11.0 0.00 0.05 0.00 36 1016.7
20260510222527 72 249 6.0 11.0 0.00 0.05 0.00 39 1016.7
20260510222027 72 232 3.0 14.0 0.00 0.05 0.00 38 1016.9
20260510221542 72 234 6.0 14.0 0.00 0.05 0.00 40 1016.9
20260510221028 71 184 3.0 11.0 0.00 0.05 0.00 36 1016.8
20260510220529 71 217 6.0 11.0 0.00 0.05 0.00 36 1016.9
20260510220041 71 233 4.0 12.0 0.00 0.05 0.00 36 1017.0
20260510215528 71 242 5.0 12.0 0.00 0.08 0.00 35 1017.0
20260510215024 71 232 2.0 12.0 0.00 0.08 0.00 35 1017.0
20260510214540 71 277 5.0 12.0 0.00 0.08 0.00 38 1017.1
20260510214029 71 234 6.0 17.0 0.00 0.08 0.00 40 1017.1
20260510213529 71 270 9.0 17.0 0.00 0.08 0.00 39 1017.2
20260510213039 71 220 6.0 13.0 0.00 0.08 0.00 40 1017.4
20260510212527 71 225 4.0 8.0 0.00 0.08 0.00 39 1017.4
20260510212031 71 269 3.0 13.0 0.00 0.08 0.00 36 1017.5
20260510211539 71 281 5.0 13.0 0.00 0.08 0.00 37 1017.6
20260510211029 70 227 7.0 13.0 0.00 0.08 0.00 43 1017.6
20260510210527 71 229 6.0 10.0 0.00 0.08 0.00 41 1017.6
20260510210038 71 217 6.0 9.0 0.00 0.08 0.00 41 1017.9
20260510205527 70 277 2.0 12.0 0.00 0.18 0.00 39 1017.9
20260510205030 70 258 4.0 12.0 0.00 0.18 0.00 38 1017.9
20260510204543 70 234 3.0 9.0 0.00 0.18 0.00 41 1017.9
20260510204027 70 270 3.0 19.0 0.00 0.18 0.00 40 1018.1
20260510203527 70 234 4.0 19.0 0.00 0.18 0.00 38 1018.0
20260510203040 69 224 4.0 12.0 0.00 0.18 0.00 40 1017.9
20260510202530 69 229 3.0 11.0 0.00 0.18 0.00 41 1018.0
20260510202027 69 280 4.0 9.0 0.00 0.18 0.00 40 1018.2
20260510201539 69 259 1.0 14.0 0.00 0.18 0.00 39 1018.2
20260510201028 69 0 3.0 14.0 0.00 0.18 0.00 38 1018.3
20260510200528 69 219 2.0 10.0 0.00 0.18 0.00 38 1018.3
20260510200038 69 306 2.0 10.0 0.00 0.18 0.00 40 1018.3
20260510195527 69 248 4.0 7.0 0.00 0.32 0.00 43 1018.4
20260510195027 69 200 2.0 7.0 0.00 0.32 0.00 41 1018.5
20260510194538 68 201 2.0 12.0 0.00 0.32 0.00 39 1018.6
20260510194029 68 279 4.0 12.0 0.00 0.32 0.00 40 1018.7
20260510193527 69 234 4.0 12.0 0.00 0.32 0.00 42 1018.7
20260510193042 68 234 4.0 9.0 0.00 0.32 0.00 41 1018.7
20260510192527 69 234 3.0 9.0 0.00 0.32 0.00 40 1018.8
20260510192027 69 336 2.0 5.0 0.00 0.32 0.00 41 1018.8
20260510191539 68 239 2.0 6.0 0.00 0.32 0.00 40 1018.8
20260510191027 68 144 2.0 6.0 0.00 0.32 0.00 37 1018.9
20260510190526 68 0 1.0 11.0 0.00 0.32 0.00 39 1019.0
20260510190043 68 292 4.0 11.0 0.00 0.32 0.00 44 1019.0
20260510185529 68 282 5.0 9.0 0.00 0.32 0.00 40 1019.1
20260510185028 68 360 1.0 8.0 0.00 0.32 0.00 41 1019.2
20260510184540 68 288 3.0 7.0 0.00 0.32 0.00 42 1019.3
20260510184024 67 292 2.0 7.0 0.00 0.32 0.00 44 1019.2
20260510183530 67 117 2.0 7.0 0.00 0.32 0.00 40 1019.3
20260510183039 67 53 4.0 6.0 0.00 0.32 0.00 45 1019.3
20260510182527 67 71 3.0 6.0 0.00 0.32 0.00 42 1019.3
20260510182027 67 94 1.0 4.0 0.00 0.32 0.00 46 1019.3
20260510181543 67 119 1.0 4.0 0.00 0.32 0.00 47 1019.5
20260510181027 66 201 1.0 4.0 0.00 0.32 0.00 40 1019.6
20260510180527 66 109 1.0 4.0 0.00 0.32 0.00 41 1019.6
20260510180043 66 223 2.0 4.0 0.00 0.32 0.00 38 1019.7
20260510175529 66 284 2.0 7.0 0.00 0.32 0.00 40 1019.8
20260510175027 66 277 2.0 7.0 0.00 0.32 0.00 40 1019.9
20260510174539 67 229 1.0 6.0 0.00 0.32 0.00 43 1019.8
20260510174030 66 172 0.0 6.0 0.00 0.32 0.00 44 1019.8
20260510173526 66 154 0.0 8.0 0.00 0.32 0.00 44 1019.8
20260510173043 65 0 3.0 8.0 0.00 0.32 0.00 40 1019.9
20260510172526 65 207 3.0 6.0 0.00 0.32 0.00 44 1019.8
20260510172027 65 0 2.0 6.0 0.00 0.32 0.00 45 1019.9
20260510171537 66 111 1.0 6.0 0.00 0.32 0.00 44 1020.1
20260510171027 66 0 2.0 5.0 0.00 0.32 0.00 43 1020.1
20260510170527 65 142 2.0 5.0 0.00 0.32 0.00 46 1020.2
20260510170038 65 252 0.0 3.0 0.00 0.32 0.00 41 1020.2
20260510165527 65 173 0.0 3.0 0.00 0.32 0.00 44 1020.2
20260510165027 65 0 0.0 5.0 0.00 0.32 0.00 46 1020.2
20260510164541 64 0 0.0 5.0 0.00 0.32 0.00 47 1020.2
20260510164027 64 239 1.0 6.0 0.00 0.32 0.00 42 1020.3
20260510163531 64 42 0.0 6.0 0.00 0.32 0.00 47 1020.2
20260510163039 64 168 3.0 6.0 0.00 0.32 0.00 46 1020.2
20260510162526 64 0 1.0 4.0 0.00 0.32 0.00 46 1020.3
20260510162026 63 145 2.0 5.0 0.00 0.32 0.00 42 1020.3
20260510161538 64 140 0.0 6.0 0.00 0.32 0.00 46 1020.2
20260510161026 64 0 2.0 6.0 0.00 0.32 0.00 47 1020.4
20260510160528 64 181 3.0 6.0 0.00 0.32 0.00 46 1020.4
20260510160039 63 0 0.0 3.0 0.00 0.32 0.00 47 1020.4
20260510155531 63 0 0.0 3.0 0.00 0.33 0.00 46 1020.6
20260510155026 62 0 0.0 3.0 0.00 0.33 0.00 45 1020.7
20260510154540 62 243 1.0 3.0 0.00 0.33 0.00 44 1020.6
20260510154028 62 272 1.0 3.0 0.00 0.33 0.00 48 1020.6
20260510153528 61 225 0.0 3.0 0.00 0.33 0.00 47 1020.6
20260510153043 61 225 0.0 3.0 0.00 0.33 0.00 47 1020.7
20260510152527 61 0 0.0 3.0 0.00 0.33 0.00 48 1020.7
20260510152027 60 225 1.0 4.0 0.00 0.33 0.00 49 1020.6
20260510151543 60 225 1.0 4.0 0.00 0.33 0.00 52 1020.6
20260510151027 60 227 2.0 4.0 0.00 0.33 0.00 55 1020.6
20260510150528 59 234 1.0 4.0 0.00 0.33 0.00 54 1020.7
20260510150045 59 221 1.0 5.0 0.00 0.33 0.00 55 1020.6
20260510145527 59 227 2.0 5.0 0.00 0.33 0.00 54 1020.6
20260510145029 59 0 0.0 0.0 0.00 0.33 0.00 56 1020.6
20260510144551 58 0 0.0 0.0 0.00 0.33 0.00 58 1020.7
20260510144029 57 0 0.0 0.0 0.00 0.33 0.00 56 1020.7
20260510143528 57 0 0.0 0.0 0.00 0.33 0.00 65 1020.6
20260510143038 56 0 0.0 0.0 0.00 0.33 0.00 64 1020.7
20260510142527 55 0 0.0 3.0 0.00 0.33 0.00 67 1020.7
20260510142024 55 0 0.0 4.0 0.00 0.33 0.00 68 1020.7
20260510141544 54 242 1.0 4.0 0.00 0.33 0.00 69 1020.7
20260510141030 54 243 1.0 4.0 0.00 0.33 0.00 69 1020.7
20260510140529 53 240 1.0 4.0 0.00 0.33 0.00 72 1020.7
20260510140041 52 240 2.0 4.0 0.00 0.33 0.00 71 1020.6
20260510135530 51 240 2.0 4.0 0.00 0.33 0.00 72 1020.7
20260510135028 50 240 2.0 4.0 0.00 0.33 0.00 72 1020.7
20260510134550 50 241 1.0 4.0 0.00 0.33 0.00 75 1020.7
20260510134029 49 241 1.0 4.0 0.00 0.33 0.00 75 1020.7
20260510133527 48 241 2.0 4.0 0.00 0.33 0.00 76 1020.7
20260510133038 46 238 2.0 4.0 0.00 0.33 0.00 79 1020.7
20260510132527 45 245 1.0 4.0 0.00 0.33 0.00 82 1020.7
20260510132028 44 250 2.0 4.0 0.00 0.33 0.00 82 1020.6
20260510131540 43 248 2.0 4.0 0.00 0.33 0.00 82 1020.7
20260510131027 42 246 2.0 5.0 0.00 0.33 0.00 83 1020.6
20260510130524 41 234 3.0 5.0 0.00 0.33 0.00 83 1020.7
20260510130045 41 238 3.0 4.0 0.00 0.33 0.00 82 1020.6
20260510125526 40 242 2.0 4.0 0.00 0.33 0.00 83 1020.5
20260510125031 40 240 2.0 4.0 0.00 0.33 0.00 84 1020.4
20260510124602 39 241 2.0 4.0 0.00 0.33 0.00 83 1020.4
20260510124028 39 238 2.0 4.0 0.00 0.33 0.00 84 1020.4
20260510123529 39 238 2.0 5.0 0.00 0.33 0.00 84 1020.3
20260510123039 39 238 2.0 5.0 0.00 0.33 0.00 84 1020.2
20260510122527 38 238 2.0 5.0 0.00 0.33 0.00 83 1020.1
20260510122028 38 241 2.0 4.0 0.00 0.33 0.00 84 1020.0
20260510121538 38 246 2.0 4.0 0.00 0.33 0.00 84 1020.1
20260510121028 38 244 2.0 4.0 0.00 0.33 0.00 84 1020.0
20260510120531 38 244 2.0 4.0 0.00 0.33 0.00 84 1020.0
20260510120040 38 244 2.0 4.0 0.00 0.33 0.00 84 1020.1
20260510115527 38 244 2.0 4.0 0.00 0.33 0.00 83 1020.0
20260510115029 39 244 1.0 4.0 0.00 0.33 0.00 83 1019.9
20260510114540 39 244 2.0 4.0 0.00 0.33 0.00 84 1020.1
20260510114027 38 243 2.0 4.0 0.00 0.33 0.00 85 1019.9
20260510113529 38 240 2.0 5.0 0.00 0.33 0.00 85 1020.0
20260510113043 38 225 2.0 5.0 0.00 0.33 0.00 86 1019.9
20260510112528 38 236 3.0 5.0 0.00 0.33 0.00 86 1019.9
20260510112024 38 248 2.0 4.0 0.00 0.33 0.00 86 1019.8
20260510111552 38 242 2.0 4.0 0.00 0.33 0.00 87 1019.9
20260510111024 37 242 1.0 3.0 0.00 0.33 0.00 88 1019.8
20260510110526 37 242 1.0 2.0 0.00 0.33 0.00 89 1019.8
20260510110041 36 242 0.0 2.0 0.00 0.33 0.00 88 1019.8
20260510105528 36 242 0.0 2.0 0.00 0.33 0.00 88 1019.8
20260510105027 36 0 0.0 0.0 0.00 0.33 0.00 86 1019.9
20260510104554 37 0 0.0 0.0 0.00 0.33 0.00 86 1019.8
20260510104026 37 0 0.0 2.0 0.00 0.33 0.00 87 1019.8
20260510103527 37 0 0.0 3.0 0.00 0.33 0.00 87 1019.9
20260510103038 37 242 1.0 4.0 0.00 0.33 0.00 87 1019.8
20260510102527 37 242 2.0 4.0 0.00 0.33 0.00 87 1019.8
20260510102026 38 242 2.0 4.0 0.00 0.33 0.00 86 1019.9
20260510101542 38 242 2.0 4.0 0.00 0.33 0.00 86 1019.9
20260510101024 38 242 2.0 3.0 0.00 0.33 0.00 87 1019.9
20260510100524 38 241 0.0 2.0 0.00 0.33 0.00 87 1019.9
20260510100039 39 0 0.0 2.0 0.00 0.33 0.00 86 1019.9
20260510095527 39 241 0.0 3.0 0.00 0.33 0.00 86 1019.8
20260510095028 39 0 0.0 3.0 0.00 0.33 0.00 85 1019.9
20260510094540 40 241 1.0 3.0 0.00 0.33 0.00 85 1019.9
20260510094027 40 241 0.0 2.0 0.00 0.33 0.00 85 1019.9
20260510093527 41 0 0.0 3.0 0.00 0.33 0.00 86 1019.9
20260510093038 41 0 0.0 6.0 0.00 0.33 0.00 84 1019.9
20260510092527 42 242 1.0 6.0 0.00 0.33 0.00 84 1019.9
20260510092026 42 244 3.0 6.0 0.00 0.33 0.00 84 1019.8
20260510091545 43 257 3.0 7.0 0.00 0.33 0.00 83 1019.8
20260510091026 43 265 3.0 8.0 0.00 0.33 0.00 83 1019.8
20260510090528 43 240 4.0 8.0 0.00 0.33 0.00 84 1019.8
20260510090042 43 246 5.0 8.0 0.00 0.33 0.00 84 1019.8
20260510085528 43 281 4.0 9.0 0.00 0.33 0.00 84 1019.8
20260510085028 43 234 4.0 9.0 0.00 0.33 0.00 84 1019.9
20260510084540 43 218 4.0 6.0 0.00 0.33 0.00 85 1019.9
20260510084028 42 234 3.0 5.0 0.00 0.33 0.00 85 1019.9
20260510083532 43 244 2.0 6.0 0.00 0.33 0.00 85 1020.0
20260510083038 42 247 3.0 8.0 0.00 0.33 0.00 86 1019.9
20260510082527 42 240 4.0 8.0 0.00 0.33 0.00 89 1019.9
20260510082027 41 262 2.0 4.0 0.00 0.33 0.00 87 1020.0
20260510081542 40 269 2.0 4.0 0.00 0.33 0.00 88 1020.1
20260510081029 40 248 0.0 2.0 0.00 0.33 0.00 88 1020.1
20260510080530 40 0 0.0 0.0 0.00 0.33 0.00 88 1020.0
20260510080037 41 0 0.0 2.0 0.00 0.33 0.00 87 1020.0
20260510075527 41 0 0.0 2.0 0.00 0.33 0.00 88 1020.0
20260510075027 41 248 1.0 2.0 0.00 0.33 0.00 86 1020.1
20260510074543 41 0 0.0 2.0 0.00 0.33 0.00 86 1020.1
20260510074026 41 0 0.0 4.0 0.00 0.33 0.00 86 1020.1
20260510073530 41 0 1.0 4.0 0.00 0.33 0.00 87 1020.2
20260510073041 41 247 1.0 4.0 0.00 0.33 0.00 86 1020.1
20260510072528 42 247 2.0 4.0 0.00 0.33 0.00 86 1020.1
20260510072027 42 263 2.0 7.0 0.00 0.33 0.00 87 1020.1
20260510071539 42 262 2.0 7.0 0.00 0.33 0.00 87 1020.1
20260510071027 42 262 3.0 6.0 0.00 0.33 0.00 88 1020.1
20260510070530 42 255 2.0 4.0 0.00 0.33 0.00 88 1020.1
20260510070040 42 267 2.0 5.0 0.00 0.33 0.00 89 1020.2
20260510065531 41 255 2.0 5.0 0.00 0.33 0.00 88 1020.3
20260510065030 42 247 2.0 5.0 0.00 0.33 0.00 89 1020.2
20260510064537 42 260 1.0 3.0 0.00 0.33 0.00 89 1020.2
20260510064028 42 260 2.0 3.0 0.00 0.33 0.00 90 1020.3
20260510063528 42 260 1.0 3.0 0.00 0.33 0.00 90 1020.4
20260510063039 41 260 1.0 3.0 0.00 0.33 0.00 90 1020.4
20260510062528 41 0 0.0 0.0 0.00 0.33 0.00 89 1020.4
20260510062028 42 0 0.0 0.0 0.00 0.33 0.00 89 1020.5
20260510061542 42 0 0.0 0.0 0.00 0.33 0.00 89 1020.6
20260510061027 42 0 0.0 0.0 0.00 0.33 0.00 88 1020.6
20260510060525 43 0 0.0 2.0 0.00 0.33 0.00 89 1020.4
20260510060051 43 0 0.0 2.0 0.00 0.33 0.00 89 1020.3
20260510055523 43 0 0.0 2.0 0.00 0.33 0.33 89 1020.5
20260510055028 43 0 0.0 2.0 0.00 0.33 0.33 89 1020.5
20260510054540 43 0 0.0 3.0 0.00 0.33 0.33 89 1020.4
20260510054027 43 260 0.0 3.0 0.00 0.33 0.33 90 1020.3
20260510053527 43 260 1.0 3.0 0.00 0.33 0.33 89 1020.2
20260510053037 43 0 0.0 2.0 0.00 0.33 0.33 89 1020.3
20260510052527 43 0 0.0 3.0 0.00 0.33 0.33 88 1020.5
20260510052027 43 0 1.0 4.0 0.00 0.33 0.33 88 1020.4
20260510051547 43 260 1.0 4.0 0.00 0.33 0.33 89 1020.5
20260510051028 43 260 1.0 4.0 0.00 0.33 0.33 90 1020.6
20260510050527 42 259 2.0 4.0 0.00 0.33 0.33 90 1020.6
20260510050047 42 254 1.0 3.0 0.00 0.33 0.33 89 1020.7
20260510045531 42 254 1.0 3.0 0.00 0.33 0.33 90 1020.6
20260510045027 41 254 1.0 3.0 0.00 0.33 0.33 90 1020.6
20260510044545 41 254 2.0 3.0 0.00 0.33 0.33 89 1020.6
20260510044030 41 254 1.0 4.0 0.00 0.33 0.33 89 1020.6
20260510043524 41 254 1.0 5.0 0.00 0.33 0.33 89 1020.6
20260510043102 41 253 2.0 5.0 0.00 0.33 0.33 89 1020.5
20260510042528 40 242 3.0 5.0 0.00 0.33 0.33 89 1020.6
20260510042027 40 286 1.0 3.0 0.00 0.33 0.33 88 1020.6
20260510041538 40 270 0.0 3.0 0.00 0.33 0.33 88 1020.6
20260510041028 41 0 0.0 3.0 0.00 0.33 0.33 88 1020.6
20260510040528 41 0 0.0 4.0 0.00 0.33 0.33 86 1020.6
20260510040039 41 249 2.0 4.0 0.00 0.33 0.33 88 1020.6
20260510035528 41 194 2.0 4.0 0.00 0.33 0.33 87 1020.6
20260510035032 41 108 0.0 3.0 0.00 0.33 0.33 85 1020.5
20260510034543 42 0 0.0 2.0 0.00 0.33 0.33 84 1020.6
20260510034027 42 0 0.0 3.0 0.00 0.33 0.33 84 1020.6
20260510033527 43 108 1.0 3.0 0.00 0.33 0.33 83 1020.5
20260510033040 44 108 2.0 3.0 0.00 0.33 0.33 82 1020.4
20260510032528 45 107 0.0 2.0 0.00 0.33 0.33 81 1020.4
20260510032027 46 0 0.0 0.0 0.00 0.33 0.33 81 1020.3
20260510031613 46 0 0.0 3.0 0.00 0.33 0.33 80 1020.3
20260510031027 47 0 0.0 3.0 0.00 0.33 0.33 79 1020.2
20260510030526 47 107 2.0 3.0 0.00 0.33 0.33 79 1020.3
20260510030039 47 107 0.0 3.0 0.00 0.33 0.33 79 1020.1
20260510025528 48 107 1.0 3.0 0.00 0.33 0.33 78 1020.1
20260510025030 48 107 1.0 6.0 0.00 0.33 0.33 77 1019.9
20260510024541 49 107 2.0 6.0 0.00 0.33 0.33 76 1019.8
20260510024027 49 108 3.0 8.0 0.00 0.33 0.33 75 1019.7
20260510023527 49 109 4.0 8.0 0.00 0.33 0.33 75 1019.6
20260510023046 48 126 5.0 8.0 0.00 0.33 0.33 76 1019.5
20260510022529 48 133 3.0 6.0 0.00 0.33 0.33 77 1019.3
20260510022031 49 88 2.0 7.0 0.00 0.33 0.33 76 1019.2
20260510021546 49 88 2.0 8.0 0.00 0.33 0.33 75 1019.0
20260510021027 50 75 3.0 9.0 0.00 0.33 0.33 73 1018.9
20260510020527 50 77 4.0 9.0 0.00 0.33 0.33 73 1018.9
20260510020039 50 68 4.0 9.0 0.00 0.33 0.33 73 1018.9
20260510015526 50 56 4.0 12.0 0.00 0.33 0.33 73 1018.9
20260510015026 50 49 4.0 12.0 0.00 0.33 0.33 74 1018.8
20260510014538 50 66 3.0 9.0 0.00 0.33 0.33 74 1018.9
20260510014028 50 82 4.0 9.0 0.00 0.33 0.33 73 1018.8
20260510013527 50 44 4.0 9.0 0.00 0.33 0.33 73 1018.8
20260510013039 51 50 5.0 10.0 0.00 0.33 0.33 72 1018.7
20260510012528 52 54 5.0 10.0 0.00 0.33 0.33 70 1018.7
20260510012027 53 49 5.0 9.0 0.00 0.33 0.33 69 1018.6
20260510011548 53 49 4.0 9.0 0.00 0.33 0.33 69 1018.6
20260510011030 53 79 4.0 9.0 0.00 0.33 0.33 69 1018.4
20260510010524 54 58 4.0 9.0 0.00 0.33 0.33 69 1018.3
20260510010044 54 55 6.0 10.0 0.00 0.33 0.33 68 1018.5
20260510005527 54 73 5.0 10.0 0.00 0.33 0.33 68 1018.4
20260510005027 54 74 4.0 11.0 0.00 0.33 0.33 70 1018.3
20260510004542 54 61 4.0 13.0 0.00 0.33 0.33 70 1018.1
20260510004032 53 76 8.0 14.0 0.00 0.33 0.33 68 1018.2
20260510003529 53 53 9.0 14.0 0.00 0.33 0.33 69 1018.2
20260510003039 53 44 7.0 14.0 0.00 0.33 0.33 71 1018.2
20260510002528 52 62 6.0 15.0 0.00 0.33 0.33 72 1018.1
20260510002029 52 53 8.0 15.0 0.00 0.33 0.33 72 1018.1
20260510001538 53 47 8.0 14.0 0.00 0.33 0.33 71 1018.1
20260510001028 53 41 7.0 14.0 0.00 0.33 0.33 73 1018.0
20260510000527 53 36 7.0 14.0 0.00 0.33 0.33 72 1018.1
20260510000037 53 63 8.0 15.0 0.05 0.33 0.33 73 1018.0
20260509235528 53 49 8.0 15.0 0.05 0.33 0.33 74 1017.9
20260509235027 53 72 9.0 15.0 0.05 0.33 0.33 72 1017.9
20260509234538 53 50 8.0 15.0 0.05 0.33 0.33 76 1017.9
20260509234029 53 55 8.0 14.0 0.05 0.33 0.33 76 1017.8